Location: Bear Valley Community Church - Hurst
(32.8460°N, 97.1828°W)
Time: 22:59:26
(UTC+00:00)

Cosmos 1515 Rocket - Pass Details

Date: 11 July 2022
Orbit: 604 x 630 km, 82.5° (Epoch: 18 August)

Event Time Altitude Azimuth Distance (km) Brightness Sun altitude
Rises 09:11:23 0° 337° (NNW) 2,876 7.3 -23.5°
Reaches altitude 10° 09:13:58 10° 322° (NW) 1,963 6.3 -23.2°
Enters shadow 09:15:38 18° 303° (WNW) 1,514 5.5 -22.9°
